When you browse on this site, cookies collect data to enhance your experience and personalize the content and advertising you see.
Visit our Privacy Policy to learn more. By continuing to use the site, you agree to this use of cookies and data.
  • In Deutschland
  • Länderverzeichnis
  • Für 7 Tage
  • Wassertemperatur
  • Satellitenkarten
  • Wetterkarte
  • Widgets
  • user-avatar
    Anmelden

    Stündliche Wetter Brecht

    Heute, 14 Dezember, Freitag

    Zeit Temperatur Niederschläge Wind Luftdruck Luftfeuchtigkeit
    00:00 -1°C° 0 mm 3 m/S 764 mmHg 89%
    01:00 -2°C° 0 mm 3 m/S 764 mmHg 90%
    02:00 -2°C° 0 mm 3 m/S 764 mmHg 91%
    03:00 -2°C° 0 mm 3 m/S 764 mmHg 92%
    04:00 -2°C° 0 mm 3 m/S 764 mmHg 92%
    05:00 -2°C° 0 mm 3 m/S 764 mmHg 93%
    06:00 -2°C° 0 mm 2 m/S 764 mmHg 93%
    07:00 -1°C° 0 mm 2 m/S 764 mmHg 90%
    08:00 -1°C° 0 mm 3 m/S 765 mmHg 88%
    09:00 0°C° 0 mm 3 m/S 765 mmHg 85%
    10:00 0°C° 0 mm 3 m/S 765 mmHg 78%
    11:00 +1°C° 0 mm 3 m/S 765 mmHg 70%
    12:00 +1°C° 0 mm 3 m/S 765 mmHg 63%
    13:00 +1°C° 0 mm 3 m/S 765 mmHg 63%
    14:00 +1°C° 0 mm 3 m/S 765 mmHg 64%
    15:00 +2°C° 0 mm 2 m/S 765 mmHg 64%
    16:00 +2°C° 0 mm 2 m/S 765 mmHg 65%
    17:00 +1°C° 0 mm 2 m/S 766 mmHg 66%
    18:00 +1°C° 0 mm 2 m/S 766 mmHg 67%
    19:00 +1°C° 0 mm 2 m/S 766 mmHg 68%
    20:00 +1°C° 0 mm 2 m/S 766 mmHg 69%
    21:00 +1°C° 0 mm 2 m/S 766 mmHg 70%
    22:00 -1°C° 0 mm 2 m/S 766 mmHg 73%
    23:00 -2°C° 0 mm 2 m/S 766 mmHg 75%

    Morgen, 15 Dezember, Samstag

    Zeit Temperatur Niederschläge Wind Luftdruck Luftfeuchtigkeit
    00:00 -2°C° 0 mm 2 m/S 767 mmHg 78%
    01:00 -2°C° 0 mm 2 m/S 766 mmHg 78%
    02:00 -2°C° 0 mm 2 m/S 766 mmHg 78%
    03:00 -2°C° 0 mm 2 m/S 766 mmHg 78%
    04:00 -2°C° 0 mm 2 m/S 766 mmHg 77%
    05:00 -4°C° 0 mm 3 m/S 765 mmHg 76%
    06:00 -4°C° 0 mm 3 m/S 765 mmHg 76%
    07:00 -2°C° 0 mm 3 m/S 765 mmHg 74%
    08:00 -3°C° 0 mm 4 m/S 765 mmHg 72%
    09:00 -3°C° 0 mm 4 m/S 765 mmHg 69%
    10:00 -2°C° 0 mm 4 m/S 764 mmHg 65%
    11:00 -1°C° 0 mm 4 m/S 764 mmHg 61%
    12:00 0°C° 0 mm 5 m/S 763 mmHg 56%
    13:00 0°C° 0 mm 5 m/S 762 mmHg 57%
    14:00 0°C° 0 mm 5 m/S 762 mmHg 57%
    15:00 0°C° 0 mm 5 m/S 761 mmHg 58%
    16:00 -1°C° 0 mm 6 m/S 760 mmHg 57%
    17:00 -2°C° 0 mm 6 m/S 759 mmHg 56%
    18:00 -2°C° 0 mm 7 m/S 759 mmHg 56%
    19:00 -1°C° 0.2 mm 7 m/S 758 mmHg 56%
    20:00 -1°C° 0.2 mm 8 m/S 757 mmHg 57%
    21:00 -1°C° 0.2 mm 8 m/S 756 mmHg 58%
    22:00 -1°C° 2.1 mm 8 m/S 755 mmHg 66%
    23:00 -1°C° 2.1 mm 8 m/S 754 mmHg 74%

    übermorgen, 16 Dezember, Sonntag

    Zeit Temperatur Niederschläge Wind Luftdruck Luftfeuchtigkeit
    00:00 -1°C° 2.1 mm 8 m/S 753 mmHg 82%
    01:00 0°C° 0.4 mm 8 m/S 753 mmHg 85%
    02:00 0°C° 0.4 mm 7 m/S 752 mmHg 87%
    03:00 0°C° 0.4 mm 7 m/S 752 mmHg 90%
    04:00 +2°C° 0.1 mm 7 m/S 752 mmHg 91%
    05:00 +2°C° 0.1 mm 6 m/S 752 mmHg 92%
    06:00 +2°C° 0.1 mm 6 m/S 752 mmHg 92%
    07:00 +2°C° 0 mm 6 m/S 753 mmHg 92%
    08:00 +2°C° 0 mm 5 m/S 753 mmHg 92%
    09:00 +2°C° 0 mm 5 m/S 754 mmHg 91%
    10:00 +2°C° 0 mm 5 m/S 754 mmHg 90%
    11:00 +3°C° 0 mm 5 m/S 754 mmHg 90%
    12:00 +3°C° 0 mm 5 m/S 754 mmHg 89%
    13:00 +3°C° 0 mm 5 m/S 754 mmHg 91%
    14:00 +4°C° 0 mm 4 m/S 755 mmHg 92%
    15:00 +3°C° 0 mm 4 m/S 755 mmHg 94%
    16:00 +3°C° 0 mm 4 m/S 755 mmHg 94%
    17:00 +3°C° 0 mm 4 m/S 756 mmHg 95%
    18:00 +1°C° 0 mm 4 m/S 756 mmHg 95%
    19:00 +3°C° 0 mm 4 m/S 756 mmHg 95%
    20:00 +3°C° 0 mm 4 m/S 757 mmHg 95%
    21:00 +3°C° 0 mm 4 m/S 757 mmHg 95%
    22:00 +3°C° 0 mm 4 m/S 757 mmHg 94%
    23:00 +2°C° 0 mm 3 m/S 757 mmHg 94%

    17 Dezember, Montag

    Zeit Temperatur Niederschläge Wind Luftdruck Luftfeuchtigkeit
    00:00 +2°C° 0 mm 3 m/S 758 mmHg 94%
    01:00 +2°C° 0 mm 3 m/S 758 mmHg 94%
    02:00 +2°C° 0 mm 3 m/S 758 mmHg 94%
    03:00 +2°C° 0 mm 3 m/S 758 mmHg 94%
    04:00 +2°C° 0 mm 3 m/S 758 mmHg 94%
    05:00 +2°C° 0 mm 3 m/S 758 mmHg 95%
    06:00 +2°C° 0 mm 3 m/S 758 mmHg 95%
    07:00 +3°C° 0.1 mm 3 m/S 759 mmHg 94%
    08:00 +3°C° 0.1 mm 3 m/S 760 mmHg 94%
    09:00 +3°C° 0.1 mm 3 m/S 760 mmHg 94%
    10:00 +4°C° 0.1 mm 3 m/S 761 mmHg 93%
    11:00 +4°C° 0.1 mm 3 m/S 761 mmHg 91%
    12:00 +5°C° 0.1 mm 3 m/S 761 mmHg 90%
    13:00 +4°C° 0 mm 3 m/S 762 mmHg 91%
    14:00 +5°C° 0 mm 2 m/S 762 mmHg 92%
    15:00 +5°C° 0 mm 2 m/S 762 mmHg 94%
    16:00 +5°C° 0 mm 2 m/S 763 mmHg 94%
    17:00 +3°C° 0 mm 3 m/S 763 mmHg 94%
    18:00 +3°C° 0 mm 3 m/S 764 mmHg 94%
    19:00 +3°C° 0 mm 3 m/S 764 mmHg 94%
    20:00 +3°C° 0 mm 4 m/S 764 mmHg 93%
    21:00 +3°C° 0 mm 4 m/S 765 mmHg 93%
    22:00 +3°C° 0 mm 4 m/S 764 mmHg 93%
    23:00 +3°C° 0 mm 4 m/S 764 mmHg 93%

    18 Dezember, Dienstag

    Zeit Temperatur Niederschläge Wind Luftdruck Luftfeuchtigkeit
    00:00 +2°C° 0 mm 5 m/S 764 mmHg 93%
    01:00 +2°C° 0 mm 5 m/S 764 mmHg 93%
    02:00 +2°C° 0 mm 5 m/S 764 mmHg 92%
    03:00 +2°C° 0 mm 5 m/S 763 mmHg 92%
    04:00 +2°C° 0 mm 5 m/S 763 mmHg 92%
    05:00 +2°C° 0 mm 5 m/S 763 mmHg 92%
    06:00 +2°C° 0 mm 6 m/S 762 mmHg 92%
    07:00 +2°C° 0 mm 6 m/S 762 mmHg 91%
    08:00 +3°C° 0 mm 6 m/S 762 mmHg 90%
    09:00 +3°C° 0 mm 6 m/S 762 mmHg 89%
    10:00 +4°C° 0 mm 7 m/S 761 mmHg 83%
    11:00 +5°C° 0 mm 7 m/S 760 mmHg 77%
    12:00 +5°C° 0 mm 7 m/S 759 mmHg 71%
    13:00 +5°C° 0 mm 7 m/S 758 mmHg 68%
    14:00 +5°C° 0 mm 8 m/S 757 mmHg 65%
    15:00 +5°C° 0 mm 8 m/S 756 mmHg 62%
    16:00 +5°C° 0.1 mm 8 m/S 755 mmHg 63%
    17:00 +5°C° 0.1 mm 8 m/S 755 mmHg 63%
    18:00 +5°C° 0.1 mm 8 m/S 754 mmHg 64%
    19:00 +5°C° 0.8 mm 8 m/S 754 mmHg 70%
    20:00 +4°C° 0.8 mm 7 m/S 754 mmHg 75%
    21:00 +4°C° 0.8 mm 7 m/S 754 mmHg 81%
    22:00 +5°C° 0.2 mm 7 m/S 754 mmHg 83%
    23:00 +5°C° 0.2 mm 7 m/S 754 mmHg 85%

    19 Dezember, Mittwoch

    Zeit Temperatur Niederschläge Wind Luftdruck Luftfeuchtigkeit
    00:00 +5°C° 0.2 mm 6 m/S 754 mmHg 87%
    01:00 +5°C° 0 mm 6 m/S 754 mmHg 88%
    02:00 +5°C° 0 mm 6 m/S 754 mmHg 90%
    03:00 +5°C° 0 mm 5 m/S 754 mmHg 91%
    04:00 +4°C° 0 mm 6 m/S 754 mmHg 91%
    05:00 +4°C° 0 mm 6 m/S 754 mmHg 91%
    06:00 +4°C° 0 mm 6 m/S 754 mmHg 91%
    07:00 +4°C° 0.1 mm 6 m/S 754 mmHg 90%
    08:00 +4°C° 0.1 mm 7 m/S 754 mmHg 88%
    09:00 +5°C° 0.1 mm 7 m/S 754 mmHg 87%
    10:00 +5°C° 0.5 mm 7 m/S 754 mmHg 85%
    11:00 +6°C° 0.5 mm 7 m/S 754 mmHg 83%
    12:00 +6°C° 0.5 mm 7 m/S 754 mmHg 81%
    13:00 +7°C° 0.1 mm 6 m/S 754 mmHg 81%
    14:00 +7°C° 0.1 mm 6 m/S 754 mmHg 80%
    15:00 +5°C° 0.1 mm 6 m/S 754 mmHg 80%
    16:00 +5°C° 0.1 mm 6 m/S 754 mmHg 80%
    17:00 +5°C° 0.1 mm 6 m/S 755 mmHg 80%
    18:00 +4°C° 0.1 mm 6 m/S 755 mmHg 81%
    19:00 +4°C° 0.1 mm 6 m/S 754 mmHg 82%
    20:00 +4°C° 0.1 mm 6 m/S 754 mmHg 82%
    21:00 +4°C° 0.1 mm 7 m/S 754 mmHg 83%
    22:00 +5°C° 0 mm 7 m/S 754 mmHg 83%
    23:00 +5°C° 0 mm 7 m/S 753 mmHg 83%
    Mehr zeigen